Location: Mahannah Oil Field
(37.4664°N, 96.6003°W)
Time: 17:29:06
(UTC+00:00)

Transit 2A Rocket - Pass Details

Date: 28 January 2021
Orbit: 594 x 909 km, 66.7° (Epoch: 25 February)

Event Time Altitude Azimuth Distance (km) Brightness Sun altitude
Rises 16:24:24 0° 182° (S) 3,394 9.1 26.1°
Reaches altitude 10° 16:27:09 10° 173° (S) 2,418 8.8 26.4°
Maximum altitude 16:32:03 33° 111° (ESE) 1,298 7.4 26.9°
Drops below altitude 10° 16:36:37 10° 49° (NE) 2,244 7.4 27.4°
Sets 16:39:04 0° 39° (NE) 3,116 8.0 27.7°
